| time (UTC) | temp C | wind direction | speed KPH | gust KPH | rain 1hr cm | rain 24hr cm | rain mn cm | humidity % | barometer mb |
| 20260502211550 | 18 | 349 | 19.3 | 30.6 | 0.00 | 0.00 | 0.00 | 40 | 1019.7 |
| 20260502210039 | 18 | 350 | 12.9 | 32.2 | 0.00 | 0.00 | 0.00 | 38 | 1019.7 |
| 20260502204538 | 18 | 329 | 20.9 | 32.2 | 0.00 | 0.00 | 0.00 | 38 | 1019.8 |
| 20260502203037 | 18 | 304 | 20.9 | 38.6 | 0.00 | 0.00 | 0.00 | 37 | 1020.0 |
| 20260502201537 | 18 | 328 | 17.7 | 33.8 | 0.00 | 0.00 | 0.00 | 38 | 1020.1 |
| 20260502200043 | 18 | 321 | 17.7 | 32.2 | 0.00 | 0.00 | 0.00 | 39 | 1020.2 |
| 20260502194535 | 18 | 312 | 16.1 | 32.2 | 0.00 | 0.00 | 0.00 | 40 | 1020.1 |
| 20260502193035 | 18 | 307 | 17.7 | 37.0 | 0.00 | 0.00 | 0.00 | 39 | 1020.1 |
| 20260502191537 | 18 | 355 | 19.3 | 33.8 | 0.00 | 0.00 | 0.00 | 38 | 1020.2 |
| 20260502190033 | 18 | 277 | 25.7 | 33.8 | 0.00 | 0.00 | 0.00 | 38 | 1020.3 |
| 20260502184536 | 18 | 297 | 22.5 | 37.0 | 0.00 | 0.00 | 0.00 | 42 | 1020.3 |
| 20260502183030 | 18 | 325 | 19.3 | 30.6 | 0.00 | 0.00 | 0.00 | 42 | 1020.3 |
| 20260502181529 | 18 | 290 | 14.5 | 40.2 | 0.00 | 0.00 | 0.00 | 43 | 1020.4 |
| 20260502163024 | 17 | 309 | 22.5 | 30.6 | 0.00 | 0.00 | 0.00 | 45 | 1020.8 |
| 20260502161518 | 17 | 307 | 14.5 | 27.4 | 0.00 | 0.00 | 0.00 | 44 | 1020.7 |
| 20260502151510 | 16 | 252 | 20.9 | 33.8 | 0.00 | 0.00 | 0.00 | 57 | 1020.9 |
| 20260502123055 | 10 | 217 | 3.2 | 6.4 | 0.00 | 0.00 | 0.00 | 85 | 1020.4 |
| 20260502121544 | 9 | 160 | 3.2 | 6.4 | 0.00 | 0.00 | 0.00 | 88 | 1020.3 |
| 20260502114542 | 8 | 155 | 0.0 | 0.0 | 0.00 | 0.00 | 0.00 | 87 | 1020.0 |
| 20260502113042 | 8 | 156 | 1.6 | 3.2 | 0.00 | 0.00 | 0.00 | 87 | 1019.9 |
| 20260502111548 | 8 | 156 | 3.2 | 4.8 | 0.00 | 0.00 | 0.00 | 87 | 1019.7 |
| 20260502110038 | 8 | 155 | 1.6 | 3.2 | 0.00 | 0.00 | 0.00 | 86 | 1019.7 |
| 20260502104535 | 8 | 155 | 1.6 | 3.2 | 0.00 | 0.00 | 0.00 | 86 | 1019.7 |
| 20260502103034 | 8 | 155 | 0.0 | 0.0 | 0.00 | 0.00 | 0.00 | 86 | 1019.5 |
| 20260502101534 | 8 | 155 | 0.0 | 0.0 | 0.00 | 0.00 | 0.00 | 86 | 1019.6 |
| 20260502091526 | 9 | 155 | 1.6 | 3.2 | 0.00 | 0.00 | 0.00 | 84 | 1019.6 |
| 20260502071512 | 11 | 103 | 3.2 | 4.8 | 0.00 | 0.00 | 0.00 | 79 | 1019.9 |
| 20260502070010 | 11 | 98 | 0.0 | 1.6 | 0.00 | 0.00 | 0.00 | 75 | 1020.0 |
| 20260502064516 | 11 | 98 | 0.0 | 1.6 | 0.00 | 0.00 | 0.00 | 70 | 1020.1 |
| 20260502063009 | 11 | 98 | 1.6 | 3.2 | 0.00 | 0.00 | 0.00 | 69 | 1020.3 |
| 20260502061507 | 11 | 98 | 0.0 | 0.0 | 0.00 | 0.00 | 0.00 | 70 | 1020.4 |
| 20260502060005 | 11 | 98 | 0.0 | 0.0 | 0.00 | 0.00 | 0.00 | 72 | 1020.4 |
| 20260502054502 | 11 | 98 | 0.0 | 0.0 | 0.00 | 0.00 | 0.00 | 72 | 1020.4 |
| 20260502053106 | 11 | 98 | 0.0 | 1.6 | 0.00 | 0.00 | 0.00 | 72 | 1020.3 |
| 20260502051557 | 12 | 98 | 0.0 | 0.0 | 0.00 | 0.00 | 0.00 | 70 | 1020.1 |
| 20260502050057 | 12 | 98 | 0.0 | 3.2 | 0.00 | 0.00 | 0.00 | 65 | 1019.9 |
| 20260502044553 | 12 | 98 | 1.6 | 4.8 | 0.00 | 0.00 | 0.00 | 64 | 1019.8 |
| 20260502043055 | 12 | 98 | 1.6 | 4.8 | 0.00 | 0.00 | 0.00 | 64 | 1019.8 |
| 20260502041555 | 13 | 98 | 1.6 | 4.8 | 0.00 | 0.00 | 0.00 | 63 | 1019.7 |
| 20260502040053 | 13 | 98 | 1.6 | 9.7 | 0.00 | 0.00 | 0.00 | 63 | 1019.8 |
| 20260502034555 | 13 | 94 | 3.2 | 6.4 | 0.00 | 0.00 | 0.00 | 62 | 1019.9 |
| 20260502033049 | 13 | 74 | 4.8 | 9.7 | 0.00 | 0.00 | 0.00 | 62 | 1020.2 |
| 20260502031549 | 13 | 65 | 6.4 | 9.7 | 0.00 | 0.00 | 0.00 | 62 | 1020.6 |
| 20260502030051 | 13 | 67 | 6.4 | 9.7 | 0.00 | 0.00 | 0.00 | 62 | 1020.7 |
| 20260502024547 | 14 | 63 | 6.4 | 9.7 | 0.00 | 0.00 | 0.00 | 59 | 1020.5 |
| 20260502023047 | 15 | 79 | 3.2 | 8.0 | 0.00 | 0.00 | 0.00 | 57 | 1020.5 |
| 20260502021546 | 15 | 360 | 3.2 | 9.7 | 0.00 | 0.00 | 0.00 | 56 | 1020.5 |
| 20260502020048 | 15 | 69 | 3.2 | 9.7 | 0.00 | 0.00 | 0.00 | 55 | 1020.5 |
| 20260502014549 | 15 | 74 | 4.8 | 14.5 | 0.00 | 0.00 | 0.00 | 54 | 1020.1 |
| 20260502013044 | 15 | 54 | 8.0 | 14.5 | 0.00 | 0.00 | 0.00 | 52 | 1019.8 |
| 20260502011544 | 15 | 65 | 8.0 | 16.1 | 0.00 | 0.00 | 0.00 | 51 | 1019.6 |
| 20260502010048 | 16 | 68 | 6.4 | 14.5 | 0.00 | 0.00 | 0.00 | 49 | 1019.4 |
| 20260502004544 | 16 | 54 | 9.7 | 16.1 | 0.00 | 0.00 | 0.00 | 47 | 1019.0 |
| 20260502003042 | 16 | 67 | 4.8 | 17.7 | 0.00 | 0.00 | 0.00 | 45 | 1018.7 |
| 20260502001543 | 17 | 61 | 4.8 | 14.5 | 0.00 | 0.00 | 0.00 | 44 | 1018.6 |
| 20260502000048 | 17 | 57 | 4.8 | 14.5 | 0.00 | 0.00 | 0.00 | 43 | 1018.4 |
| 20260501234541 | 17 | 44 | 4.8 | 11.3 | 0.00 | 0.00 | 0.00 | 43 | 1018.2 |
| 20260501233040 | 17 | 57 | 9.7 | 22.5 | 0.00 | 0.00 | 0.00 | 42 | 1018.4 |
| 20260501231554 | 17 | 52 | 4.8 | 16.1 | 0.00 | 0.00 | 0.00 | 41 | 1018.3 |
| 20260501230050 | 17 | 30 | 6.4 | 16.1 | 0.00 | 0.00 | 0.00 | 41 | 1017.9 |
| 20260501224546 | 18 | 49 | 4.8 | 19.3 | 0.00 | 0.00 | 0.00 | 41 | 1018.0 |
| 20260501223045 | 18 | 5 | 8.0 | 24.1 | 0.00 | 0.00 | 0.00 | 40 | 1017.7 |
| 20260501221550 | 17 | 61 | 6.4 | 17.7 | 0.00 | 0.00 | 0.00 | 39 | 1017.6 |
| 20260501220036 | 18 | 72 | 6.4 | 24.1 | 0.00 | 0.00 | 0.00 | 39 | 1017.4 |
| 20260501214534 | 18 | 38 | 8.0 | 20.9 | 0.00 | 0.00 | 0.00 | 41 | 1017.4 |
| 20260501213033 | 18 | 49 | 8.0 | 19.3 | 0.00 | 0.00 | 0.00 | 41 | 1017.8 |